Weather History for KVOK - July, 2013

Change the Weather History Date:

Wednesday, July 17, 2013

  Actual Average Record
Temperature  
Mean Temperature 81 °F -  
Max Temperature 92 °F - - ()
Min Temperature 71 °F - - ()
Cooling Degree Days 16    
Growing Degree Days 31 (Base 50)    
Moisture  
Dew Point 72 °F    
Average Humidity 72    
Maximum Humidity 96    
Minimum Humidity 52    
Precipitation  
Precipitation 0.00 in - - ()
Sea Level Pressure  
Sea Level Pressure 30.23 in    
Wind  
Wind Speed 6 mph (WSW)    
Max Wind Speed 13 mph    
Max Gust Speed 18 mph    
Visibility 10 miles    
Events      
T = Trace of Precipitation, MM = Missing Value Source: NWS Daily Summary

Daily Weather History Graph

Daily Weather History Graph

Search for Another Location

Airport or City:

Trip Planner

Search our weather history database for the weather conditions in past years. The results will help you decide how hot, cold, wet, or windy it might be!

Date:

Astronomy

Jul. 17, 2013 Rise Set
Actual Time 5:34 AM CDT 8:39 PM CDT
Civil Twilight 4:59 AM CDT 9:14 PM CDT
Nautical Twilight 4:15 AM CDT 9:58 PM CDT
Astronomical Twilight 3:21 AM CDT 10:51 PM CDT
Moon 3:26 PM CDT (7/17) 12:45 AM CDT (7/17)
Length of Visible Light 16h 14m
Length of Day
15h 05m
Waxing Gibbous, 67% of the Moon is Illuminated
Jul 17
Waxing Gibbous
Jul 22
Full
Jul 29
Last Quarter
Aug 6
New
Aug 14
First Quarter

Hourly Weather History & Observations

Time (CDT) Temp. Heat Index Dew Point Humidity Pressure Visibility Wind Dir Wind Speed Gust Speed Precip Events Conditions
12:58 AM 79.9 °F - 72.3 °F 78% 30.25 in 10.0 mi SW 9.2 mph - N/A   Unknown
1:58 AM 78.8 °F - 72.3 °F 80% 30.25 in 10.0 mi Variable 2.3 mph - N/A   Unknown
2:58 AM 76.6 °F - 72.3 °F 86% 30.26 in 10.0 mi Variable 1.2 mph - N/A   Unknown
3:58 AM 77.4 °F - 72.5 °F 85% 30.25 in 10.0 mi WSW 8.1 mph - N/A   Clear
4:58 AM 73.2 °F - 71.6 °F 95% 30.26 in 10.0 mi NW 2.3 mph - N/A   Clear
5:58 AM 75.0 °F - 72.1 °F 91% 30.27 in 10.0 mi WSW 4.6 mph - N/A   Clear
6:58 AM 78.6 °F - 72.5 °F 81% 30.27 in 10.0 mi SW 6.9 mph - N/A   Clear
7:58 AM 80.6 °F 85.2 °F 73.0 °F 78% 30.27 in 10.0 mi West 6.9 mph - N/A   Clear
8:58 AM 84.2 °F 90.9 °F 73.4 °F 70% 30.29 in 10.0 mi West 6.9 mph - N/A   Clear
9:58 AM 86.4 °F 94.2 °F 73.9 °F 66% 30.28 in 10.0 mi West 4.6 mph - N/A   Clear
10:58 AM 89.6 °F 98.2 °F 73.4 °F 59% 30.27 in 10.0 mi WNW 8.1 mph - N/A   Partly Cloudy
11:58 AM 89.6 °F 96.2 °F 71.6 °F 55% 30.27 in 10.0 mi West 8.1 mph - N/A   Scattered Clouds
12:58 PM 91.4 °F 100.1 °F 73.4 °F 55% 30.26 in 10.0 mi West 6.9 mph - N/A   Scattered Clouds
1:58 PM 91.4 °F 98.4 °F 71.6 °F 52% 30.24 in 10.0 mi WSW 8.1 mph - N/A   Scattered Clouds
2:58 PM 91.4 °F 98.4 °F 71.6 °F 52% 30.21 in 10.0 mi WSW 12.7 mph 18.4 mph N/A   Scattered Clouds
3:58 PM 91.4 °F 99.5 °F 72.7 °F 54% 30.21 in 10.0 mi West 8.1 mph - N/A   Clear
4:58 PM 91.0 °F 97.6 °F 71.2 °F 52% 30.20 in 10.0 mi West 10.4 mph - N/A   Partly Cloudy
5:58 PM 89.4 °F 96.8 °F 72.3 °F 57% 30.19 in 10.0 mi West 10.4 mph - N/A   Clear
6:58 PM 88.2 °F 94.6 °F 71.6 °F 58% 30.17 in 10.0 mi West 9.2 mph - N/A   Clear
7:58 PM 86.0 °F 91.1 °F 70.9 °F 60% 30.16 in 10.0 mi SW 8.1 mph - N/A   Clear
8:58 PM 79.9 °F - 71.4 °F 75% 30.16 in 10.0 mi SW 3.5 mph - N/A   Clear
9:58 PM 73.6 °F - 71.1 °F 92% 30.17 in 10.0 mi ESE 1.2 mph - N/A   Clear
10:58 PM 71.6 °F - 70.3 °F 96% 30.17 in 10.0 mi Calm Calm - N/A   Clear
11:58 PM 73.8 °F - 70.7 °F 90% 30.16 in 10.0 mi East 2.3 mph - N/A   Clear